This is the latest recevied weather packets stored in our database for station/object WX9WTF. If no packets are shown the sender has not sent any weather packets the latest 10 day(s).
| Time | Temp. | Humidity | Pressure | Rain* | Wind** | Luminosity | Snow |
|---|---|---|---|---|---|---|---|
| 1777344143 | 14.44° C | 77% | 1012.4 hPa | 0 mm | - | 0 W/m² | - |
| 1777343839 | 14.44° C | 77% | 1012.1 hPa | 0 mm | - | 0 W/m² | - |
| 1777343537 | 14.44° C | 77% | 1012 hPa | 0 mm | - | 0 W/m² | - |
| 1777343234 | 15° C | 77% | 1011.9 hPa | 0 mm | - | 0 W/m² | - |
| 1777342931 | 15° C | 78% | 1011.9 hPa | 0 mm | - | 0 W/m² | - |
| 1777342628 | 15° C | 78% | 1011.6 hPa | 0 mm | - | 0 W/m² | - |
| 1777342324 | 15.56° C | 77% | 1011.6 hPa | 0 mm | - | 0 W/m² | - |
| 1777342022 | 15.56° C | 76% | 1011.5 hPa | 0 mm | - | 0 W/m² | - |
| 1777341719 | 15.56° C | 77% | 1011.3 hPa | 0 mm | - | 0 W/m² | - |
| 1777341415 | 15.56° C | 76% | 1011 hPa | 0 mm | - | 0 W/m² | - |
| 1777341111 | 15.56° C | 76% | 1010.8 hPa | 0 mm | - | 0 W/m² | - |
| 1777340802 | 16.11° C | 76% | 1010.6 hPa | 0 mm | - | 0 W/m² | - |
| 1777340501 | 16.11° C | 76% | 1010.4 hPa | 0 mm | - | 0 W/m² | - |
| 1777340197 | 16.11° C | 75% | 1010.6 hPa | 0 mm | - | 0 W/m² | - |
| 1777339894 | 16.11° C | 76% | 1010.1 hPa | 0 mm | - | 0 W/m² | - |
| 1777339592 | 16.11° C | 77% | 1010.2 hPa | 0 mm | - | 0 W/m² | - |
| 1777339289 | 16.67° C | 76% | 1010.1 hPa | 0 mm | - | 0 W/m² | - |
| 1777338987 | 16.67° C | 76% | 1009.9 hPa | 0 mm | - | 1 W/m² | - |
| 1777338684 | 16.67° C | 77% | 1009.7 hPa | 0 mm | - | 2 W/m² | - |
| 1777338382 | 16.67° C | 77% | 1009.6 hPa | 0 mm | - | 4 W/m² | - |
| 1777338078 | 16.67° C | 77% | 1009.7 hPa | 0 mm | - | 6 W/m² | - |
| 1777337774 | 16.67° C | 77% | 1009.7 hPa | 0 mm | - | 8 W/m² | - |
| 1777337472 | 17.22° C | 77% | 1009.5 hPa | 0 mm | - | 12 W/m² | - |
| 1777337168 | 17.22° C | 78% | 1009.5 hPa | 0 mm | - | 15 W/m² | - |
| 1777336866 | 17.22° C | 77% | 1009.4 hPa | 0 mm | - | 22 W/m² | - |
* Rain latest hour (hover to see other rain measurements)
** Current wind speed in m/s (hover to see current wind gust speed)